sat.trackr.live / text

‹ back to catalog

GLOBALSTAR M089

NORAD 37744 · 2011-033F

PAYLOAD ACTIVE UNKNOWN

§ Identity

Operator
Country
GLOB
Launch date
2011-07-13
Launch site
TYMSC
Launch vehicle
Mass (kg)
RCS (m²)
5.16

Purposes: comms

External: N2YO · Heavens-Above · Gunter

§ Orbital elements

Epoch: 2026-05-25T04:52:25.427712Z

Period
114.08 min
Inclination
51.9921°
Eccentricity
0.0000568
Mean motion
12.62266572 rev/d
Perigee alt
1,413.2 km
Apogee alt
1,414.0 km
Semi-major
7,791.7 km
B*
2.3938e-5
RAAN
219.7866°
Arg perigee
110.0774°
Mean anomaly
268.4068°
Rev number
68,788

§ Raw data

GLOBALSTAR M0891 37744U 11033F   26145.20307208 -.00000099  00000+0  23938-4 0  99902 37744  51.9921 219.7866 0000568 110.0774 268.4068 12.62266572687882

JSON: /api/v1/satellites/37744 · /tle

For live sub-satellite position, see the globe view (requires WebGL).

§ Visibility from observer

Set your observer location to see the next 7 days of passes ≥ 10°. The values pass through the URL so the page stays shareable.

No JS? Fill the form by hand. The geolocation button needs JavaScript.